User: anonymous   Login
Location: Unspecified
(0.0000°N, 0.0000°E)
Time: 00:37:23
(UTC+00:00)
Language:

ELEKTRO-L - Orbit

View from above orbital plane
View from above orbital plane
View from above satellite
View from above satellite

Ground track
Ground track

The orbit data is extracted from the following two-line orbital elements,

1 37344U 11001A   14297.03603163 -.00000096  00000-0  00000+0 0  1266
2 37344 000.4887 080.5345 0000934 182.2267 218.5204 01.00269971 13819
Epoch (UTC): 24 October 2014 00:51:53
Eccentricity: 0.0000934
inclination: 0.4887°
perigee height: 35783 km
apogee height: 35790 km
right ascension of ascending node: 80.5345°
argument of perigee: 182.2267°
revolutions per day: 1.00269971
mean anomaly at epoch: 218.5204°
orbit number at epoch: 1381

The dashed part of the orbit path shows where the satellite is in the earth's shadow,  

DLR